When you browse on this site, cookies collect data to enhance your experience and personalize the content and advertising you see.
Visit our Privacy Policy to learn more. By continuing to use the site, you agree to this use of cookies and data.
  • In Spain
  • List of Countries
  • For 7 days
  • Water Temperature
  • Satellite Maps
  • Weather Map
  • Weather Widgets
  • user-avatar
    Login

    Hourly Weather Elbasan

    Today, 23 July, Tuesday

    Time Temperature Precipitation Wind Pressure Humidity
    00:00 +25°C° 0 mm 2 mps 736 mmHg 61%
    01:00 +24°C° 0 mm 2 mps 736 mmHg 62%
    02:00 +24°C° 0 mm 2 mps 736 mmHg 63%
    03:00 +24°C° 0 mm 2 mps 736 mmHg 64%
    04:00 +24°C° 0 mm 2 mps 735 mmHg 65%
    05:00 +25°C° 0 mm 2 mps 736 mmHg 62%
    06:00 +27°C° 0 mm 2 mps 736 mmHg 59%
    07:00 +28°C° 0 mm 2 mps 736 mmHg 56%
    08:00 +30°C° 0 mm 2 mps 736 mmHg 51%
    09:00 +31°C° 0 mm 2 mps 736 mmHg 46%
    10:00 +33°C° 0 mm 1 mps 736 mmHg 40%
    11:00 +35°C° 0.1 mm 2 mps 736 mmHg 39%
    12:00 +35°C° 0.1 mm 2 mps 735 mmHg 38%
    13:00 +35°C° 0.1 mm 2 mps 735 mmHg 37%
    14:00 +35°C° 0 mm 2 mps 735 mmHg 39%
    15:00 +34°C° 0 mm 3 mps 735 mmHg 40%
    16:00 +33°C° 0 mm 3 mps 734 mmHg 42%
    17:00 +31°C° 0 mm 2 mps 734 mmHg 48%
    18:00 +29°C° 0 mm 2 mps 734 mmHg 53%
    19:00 +27°C° 0 mm 2 mps 734 mmHg 59%
    20:00 +26°C° 0 mm 2 mps 734 mmHg 61%
    21:00 +25°C° 0 mm 2 mps 734 mmHg 62%
    22:00 +25°C° 0 mm 2 mps 735 mmHg 64%
    23:00 +24°C° 0 mm 2 mps 734 mmHg 64%

    Tomorrow, 24 July, Wednesday

    Time Temperature Precipitation Wind Pressure Humidity
    00:00 +24°C° 0 mm 2 mps 734 mmHg 63%
    01:00 +23°C° 0 mm 2 mps 734 mmHg 63%
    02:00 +23°C° 0 mm 2 mps 734 mmHg 63%
    03:00 +23°C° 0 mm 2 mps 734 mmHg 63%
    04:00 +21°C° 0 mm 2 mps 734 mmHg 63%
    05:00 +24°C° 0 mm 2 mps 734 mmHg 60%
    06:00 +25°C° 0 mm 2 mps 734 mmHg 57%
    07:00 +27°C° 0 mm 2 mps 734 mmHg 53%
    08:00 +29°C° 0 mm 2 mps 734 mmHg 48%
    09:00 +30°C° 0 mm 2 mps 734 mmHg 43%
    10:00 +32°C° 0 mm 2 mps 734 mmHg 38%
    11:00 +34°C° 0 mm 2 mps 734 mmHg 37%
    12:00 +34°C° 0 mm 2 mps 734 mmHg 36%
    13:00 +35°C° 0 mm 2 mps 734 mmHg 34%
    14:00 +35°C° 0 mm 3 mps 734 mmHg 35%
    15:00 +35°C° 0 mm 3 mps 734 mmHg 36%
    16:00 +34°C° 0 mm 4 mps 734 mmHg 38%
    17:00 +31°C° 0 mm 3 mps 734 mmHg 43%
    18:00 +29°C° 0 mm 3 mps 734 mmHg 49%
    19:00 +27°C° 0 mm 2 mps 734 mmHg 55%
    20:00 +26°C° 0 mm 2 mps 734 mmHg 56%
    21:00 +25°C° 0 mm 2 mps 735 mmHg 58%
    22:00 +24°C° 0 mm 2 mps 735 mmHg 60%
    23:00 +24°C° 0 mm 3 mps 735 mmHg 61%

    Day after tomorrow, 25 July, Thursday

    Time Temperature Precipitation Wind Pressure Humidity
    00:00 +22°C° 0 mm 3 mps 735 mmHg 62%
    01:00 +22°C° 0 mm 3 mps 735 mmHg 63%
    02:00 +22°C° 0 mm 3 mps 735 mmHg 64%
    03:00 +21°C° 0 mm 3 mps 735 mmHg 65%
    04:00 +21°C° 0 mm 3 mps 735 mmHg 66%
    05:00 +22°C° 0 mm 3 mps 735 mmHg 62%
    06:00 +25°C° 0 mm 3 mps 736 mmHg 58%
    07:00 +26°C° 0 mm 2 mps 736 mmHg 54%
    08:00 +28°C° 0 mm 2 mps 736 mmHg 49%
    09:00 +30°C° 0 mm 1 mps 736 mmHg 43%
    10:00 +32°C° 0 mm 1 mps 737 mmHg 37%
    11:00 +33°C° 0 mm 1 mps 736 mmHg 36%
    12:00 +35°C° 0 mm 2 mps 736 mmHg 34%
    13:00 +35°C° 0 mm 2 mps 736 mmHg 32%
    14:00 +35°C° 0 mm 3 mps 736 mmHg 36%
    15:00 +34°C° 0 mm 3 mps 735 mmHg 39%
    16:00 +33°C° 0 mm 4 mps 735 mmHg 42%
    17:00 +30°C° 0 mm 3 mps 735 mmHg 49%
    18:00 +28°C° 0 mm 2 mps 735 mmHg 57%
    19:00 +26°C° 0 mm 1 mps 735 mmHg 64%
    20:00 +25°C° 0 mm 1 mps 735 mmHg 65%
    21:00 +25°C° 0 mm 1 mps 735 mmHg 65%
    22:00 +24°C° 0 mm 1 mps 735 mmHg 66%
    23:00 +24°C° 0 mm 1 mps 735 mmHg 66%

    26 July, Friday

    Time Temperature Precipitation Wind Pressure Humidity
    00:00 +24°C° 0 mm 1 mps 735 mmHg 65%
    01:00 +24°C° 0 mm 1 mps 735 mmHg 65%
    02:00 +23°C° 0 mm 1 mps 735 mmHg 65%
    03:00 +23°C° 0 mm 1 mps 734 mmHg 66%
    04:00 +23°C° 0 mm 1 mps 734 mmHg 66%
    05:00 +24°C° 0 mm 1 mps 734 mmHg 61%
    06:00 +26°C° 0 mm 1 mps 734 mmHg 57%
    07:00 +26°C° 0 mm 0 mps 734 mmHg 52%
    08:00 +29°C° 0 mm 1 mps 734 mmHg 48%
    09:00 +31°C° 0 mm 1 mps 734 mmHg 44%
    10:00 +34°C° 0 mm 2 mps 734 mmHg 39%
    11:00 +34°C° 0 mm 3 mps 734 mmHg 38%
    12:00 +35°C° 0 mm 3 mps 733 mmHg 37%
    13:00 +35°C° 0 mm 4 mps 733 mmHg 36%
    14:00 +35°C° 0 mm 4 mps 733 mmHg 38%
    15:00 +34°C° 0 mm 4 mps 732 mmHg 41%
    16:00 +33°C° 0 mm 3 mps 732 mmHg 43%
    17:00 +30°C° 0 mm 2 mps 732 mmHg 49%
    18:00 +28°C° 0 mm 2 mps 731 mmHg 56%
    19:00 +26°C° 0 mm 1 mps 731 mmHg 62%
    20:00 +25°C° 0 mm 1 mps 731 mmHg 64%
    21:00 +25°C° 0 mm 1 mps 731 mmHg 66%
    22:00 +24°C° 0 mm 1 mps 732 mmHg 68%
    23:00 +23°C° 0 mm 1 mps 731 mmHg 70%

    27 July, Saturday

    Time Temperature Precipitation Wind Pressure Humidity
    00:00 +21°C° 0 mm 0 mps 731 mmHg 71%
    01:00 +21°C° 0 mm 0 mps 731 mmHg 72%
    02:00 +21°C° 0 mm 0 mps 731 mmHg 72%
    03:00 +22°C° 0 mm 1 mps 730 mmHg 72%
    04:00 +22°C° 0 mm 1 mps 730 mmHg 72%
    05:00 +24°C° 0 mm 1 mps 730 mmHg 66%
    06:00 +26°C° 0 mm 1 mps 730 mmHg 60%
    07:00 +26°C° 0 mm 0 mps 730 mmHg 54%
    08:00 +29°C° 0 mm 1 mps 730 mmHg 49%
    09:00 +31°C° 0 mm 1 mps 730 mmHg 43%
    10:00 +34°C° 0 mm 2 mps 730 mmHg 37%
    11:00 +34°C° 0 mm 3 mps 730 mmHg 36%
    12:00 +35°C° 0 mm 3 mps 730 mmHg 36%
    13:00 +35°C° 0 mm 4 mps 729 mmHg 35%
    14:00 +35°C° 0 mm 4 mps 729 mmHg 37%
    15:00 +34°C° 0 mm 4 mps 729 mmHg 40%
    16:00 +33°C° 0 mm 3 mps 728 mmHg 42%
    17:00 +30°C° 0 mm 2 mps 728 mmHg 49%
    18:00 +28°C° 0 mm 2 mps 728 mmHg 55%
    19:00 +26°C° 0 mm 1 mps 728 mmHg 61%
    20:00 +25°C° 0 mm 1 mps 728 mmHg 62%
    21:00 +25°C° 0 mm 1 mps 728 mmHg 64%
    22:00 +24°C° 0 mm 1 mps 728 mmHg 65%
    23:00 +24°C° 0 mm 1 mps 728 mmHg 63%

    28 July, Sunday

    Time Temperature Precipitation Wind Pressure Humidity
    00:00 +24°C° 0 mm 1 mps 728 mmHg 61%
    01:00 +24°C° 0 mm 1 mps 728 mmHg 60%
    02:00 +23°C° 0.1 mm 1 mps 728 mmHg 58%
    03:00 +23°C° 0.1 mm 1 mps 727 mmHg 57%
    04:00 +23°C° 0.1 mm 1 mps 727 mmHg 56%
    05:00 +24°C° 0.2 mm 1 mps 728 mmHg 54%
    06:00 +26°C° 0.2 mm 1 mps 728 mmHg 53%
    07:00 +26°C° 0.2 mm 0 mps 728 mmHg 51%
    08:00 +29°C° 0 mm 1 mps 728 mmHg 45%
    09:00 +31°C° 0 mm 1 mps 728 mmHg 40%
    10:00 +34°C° 0 mm 2 mps 728 mmHg 34%
    11:00 +35°C° 0 mm 3 mps 728 mmHg 33%
    12:00 +35°C° 0 mm 3 mps 727 mmHg 31%
    13:00 +35°C° 0 mm 4 mps 727 mmHg 30%
    14:00 +34°C° 0 mm 3 mps 727 mmHg 37%
    15:00 +31°C° 0 mm 3 mps 726 mmHg 45%
    16:00 +30°C° 0 mm 2 mps 726 mmHg 53%
    17:00 +29°C° 0 mm 1 mps 726 mmHg 56%
    18:00 +27°C° 0 mm 1 mps 726 mmHg 60%
    19:00 +26°C° 0 mm 1 mps 726 mmHg 63%
    20:00 +26°C° 0 mm 1 mps 726 mmHg 62%
    21:00 +25°C° 0 mm 1 mps 726 mmHg 61%
    22:00 +25°C° 0 mm 1 mps 727 mmHg 59%
    23:00 +24°C° 0 mm 1 mps 727 mmHg 61%
    Show more